QPF
0.00 0.00 0.00 0.00 0.00 0.00 0.00 0.00 0.00 0.00 0.00 0.00 0.00 0.00 0.00 0.00 0.00 0.00 0.00 0.00 0.00 0.00 0.00 0.00 0.00 0.00 0.00 0.00 0.00 0.00 0.00 0.01 0.00 0.00 0.00 0.00 0.00 0.00 0.00 0.00 0.00 0.00 0.00
0.00 0.00 0.00 0.00 0.00 0.00 0.00 0.00 0.00 0.00 0.00 0.00 0.00 0.00 0.00 0.00 0.00 0.00 0.00 0.00 0.00 0.00 0.00 0.00 0.00 0.00 0.00 0.00 0.00 0.00 0.00 0.00 0.00 0.00 0.00 0.00 0.00 0.00 0.00 0.00 0.00 0.00 0.00
0.00 0.00 0.00 0.00 0.00 0.00 0.00 0.00 0.00 0.00 0.00 0.00 0.00 0.00 0.00 0.00 0.00 0.00 0.00 0.00 0.00 0.00 0.00 0.00 0.00 0.00 0.00 0.00 0.00 0.00 0.00 0.00 0.00 0.00 0.00 0.00 0.00 0.00 0.00 0.00 0.00 0.00 0.00
0.00 0.00 0.00 0.00 0.00 0.00 0.00 0.00 0.00 0.00 0.00 0.00 0.00 0.00 0.00 0.00 0.00 0.00 0.00 0.00 0.00 0.00 0.00 0.00 0.00 0.00 0.00 0.00 0.00 0.00 0.00 0.00 0.00 0.00 0.00 0.00 0.00 0.00 0.00 0.00 0.00 0.00 0.00
0.00 0.00 0.00 0.00 0.00 0.00 0.00 0.00 0.00 0.00 0.00 0.00 0.00 0.00 0.00 0.00 0.00 0.00 0.00 0.00 0.00 0.00 0.00 0.00 0.00 0.00 0.00 0.00 0.00 0.00 0.00 0.00 0.00 0.01 0.00 0.00 0.00 0.00 0.00 0.00 0.01 0.00 0.00
0.00 0.00 0.00 0.00 0.00 0.00 0.00 0.00 0.00 0.00 0.00 0.00 0.00 0.00 0.00 0.00 0.00 0.00 0.00 0.00 0.00 0.00 0.00 0.00 0.00 0.00 0.00 0.00 0.00 0.00 0.00 0.00 0.01 0.01 0.01 0.01 0.01 0.01 0.01 0.01 0.01 0.02 0.01
0.00 0.00 0.00 0.00 0.00 0.00 0.00 0.00 0.00 0.00 0.00 0.00 0.00 0.00 0.00 0.00 0.00 0.00 0.00 0.00 0.00 0.00 0.00 0.00 0.00 0.00 0.00 0.00 0.00 0.00 0.00 0.00 0.01 0.01 0.02 0.01 0.01 0.01 0.02 0.02 0.02 0.03 0.02
0.00 0.00 0.00 0.00 0.00 0.00 0.00 0.00 0.00 0.00 0.00 0.00 0.00 0.00 0.00 0.00 0.00 0.00 0.00 0.00 0.00 0.00 0.00 0.00 0.00 0.00 0.00 0.00 0.00 0.00 0.00 0.00 0.00 0.01 0.01 0.01 0.01 0.01 0.02 0.03 0.03 0.02 0.01
0.00 0.00 0.00 0.00 0.00 0.00 0.00 0.00 0.00 0.00 0.00 0.00 0.00 0.00 0.00 0.00 0.00 0.00 0.00 0.00 0.00 0.00 0.00 0.00 0.00 0.00 0.00 0.00 0.00 0.00 0.00 0.00 0.00 0.00 0.01 0.01 0.01 0.01 0.01 0.02 0.02 0.03 0.02
0.00 0.00 0.00 0.00 0.00 0.00 0.00 0.00 0.00 0.00 0.00 0.00 0.00 0.00 0.00 0.00 0.00 0.00 0.00 0.00 0.00 0.00 0.00 0.00 0.00 0.00 0.00 0.00 0.00 0.01 0.01 0.00 0.00 0.00 0.00 0.00 0.00 0.00 0.01 0.01 0.03 0.06 0.05
0.00 0.00 0.00 0.00 0.00 0.00 0.00 0.00 0.00 0.00 0.00 0.00 0.00 0.00 0.00 0.00 0.00 0.00 0.00 0.00 0.00 0.00 0.00 0.00 0.00 0.00 0.00 0.01 0.01 0.01 0.01 0.01 0.01 0.01 0.00 0.00 0.00 0.00 0.01 0.01 0.03 0.05 0.06
0.00 0.00 0.00 0.00 0.00 0.00 0.00 0.00 0.00 0.00 0.00 0.00 0.00 0.00 0.00 0.00 0.00 0.00 0.00 0.00 0.00 0.00 0.00 0.00 0.00 0.00 0.00 0.01 0.00 0.00 0.01 0.01 0.01 0.00 0.00 0.00 0.00 0.01 0.01 0.02 0.02 0.02 0.03
0.00 0.00 0.00 0.00 0.00 0.00 0.00 0.00 0.00 0.00 0.00 0.00 0.00 0.00 0.00 0.00 0.00 0.00 0.00 0.00 0.00 0.00 0.00 0.00 0.00 0.00 0.00 0.00 0.00 0.00 0.00 0.01 0.01 0.01 0.01 0.01 0.01 0.01 0.02 0.02 0.02 0.02 0.02
0.00 0.00 0.00 0.00 0.00 0.00 0.00 0.00 0.00 0.00 0.00 0.00 0.00 0.00 0.00 0.00 0.00 0.00 0.00 0.00 0.00 0.00 0.00 0.00 0.00 0.00 0.00 0.00 0.00 0.00 0.00 0.01 0.01 0.01 0.01 0.01 0.01 0.01 0.01 0.01 0.01 0.01 0.01
0.00 0.00 0.00 0.00 0.00 0.00 0.00 0.00 0.00 0.00 0.00 0.00 0.00 0.00 0.00 0.00 0.00 0.00 0.01 0.01 0.01 0.01 0.01 0.01 0.01 0.00 0.00 0.00 0.00 0.01 0.01 0.01 0.01 0.01 0.01 0.01 0.01 0.01 0.01 0.01 0.01 0.01 0.01
0.00 0.00 0.00 0.00 0.00 0.00 0.00 0.00 0.00 0.00 0.00 0.00 0.00 0.00 0.00 0.00 0.00 0.01 0.01 0.01 0.01 0.01 0.02 0.01 0.01 0.01 0.01 0.01 0.01 0.01 0.01 0.01 0.01 0.01 0.01 0.01 0.01 0.01 0.01 0.01 0.01 0.01 0.01
0.00 0.00 0.00 0.00 0.00 0.00 0.00 0.00 0.00 0.00 0.00 0.00 0.00 0.00 0.00 0.00 0.00 0.01 0.01 0.01 0.01 0.01 0.01 0.01 0.01 0.01 0.01 0.01 0.01 0.01 0.01 0.01 0.01 0.01 0.01 0.01 0.01 0.01 0.01 0.01 0.01 0.01 0.01
0.00 0.00 0.00 0.00 0.00 0.00 0.00 0.00 0.00 0.00 0.00 0.00 0.00 0.00 0.00 0.00 0.00 0.00 0.00 0.01 0.00 0.00 0.01 0.01 0.01 0.01 0.01 0.01 0.01 0.01 0.01 0.01 0.01 0.01 0.01 0.01 0.01 0.01 0.01 0.01 0.01 0.01 0.01
0.00 0.00 0.00 0.00 0.00 0.00 0.00 0.00 0.00 0.00 0.00 0.00 0.00 0.00 0.00 0.00 0.00 0.00 0.00 0.00 0.00 0.00 0.00 0.01 0.01 0.01 0.01 0.01 0.01 0.01 0.01 0.01 0.01 0.01 0.01 0.01 0.01 0.01 0.01 0.01 0.01 0.01 0.01
0.00 0.00 0.00 0.00 0.00 0.00 0.00 0.00 0.00 0.00 0.00 0.00 0.00 0.00 0.00 0.00 0.00 0.00 0.00 0.00 0.00 0.00 0.01 0.01 0.01 0.01 0.01 0.01 0.01 0.01 0.01 0.01 0.01 0.01 0.01 0.01 0.01 0.01 0.01 0.01 0.01 0.00 0.00
0.00 0.00 0.00 0.00 0.00 0.00 0.00 0.00 0.00 0.00 0.00 0.00 0.00 0.00 0.00 0.01 0.00 0.00 0.00 0.00 0.00 0.01 0.01 0.01 0.01 0.01 0.01 0.01 0.01 0.01 0.01 0.01 0.01 0.01 0.01 0.01 0.01 0.01 0.01 0.01 0.00 0.00 0.00
0.00 0.00 0.00 0.00 0.00 0.00 0.00 0.00 0.00 0.00 0.00 0.00 0.00 0.00 0.00 0.00 0.00 0.00 0.00 0.00 0.00 0.01 0.01 0.01 0.01 0.01 0.01 0.01 0.01 0.01 0.01 0.01 0.01 0.01 0.01 0.01 0.01 0.01 0.00 0.00 0.00 0.00 0.00
0.00 0.00 0.00 0.00 0.00 0.00 0.00 0.00 0.00 0.00 0.00 0.00 0.00 0.00 0.00 0.00 0.00 0.00 0.00 0.00 0.00 0.00 0.01 0.01 0.01 0.01 0.01 0.01 0.01 0.01 0.01 0.01 0.01 0.01 0.01 0.01 0.00 0.00 0.00 0.00 0.00 0.00 0.00
0.00 0.00 0.00 0.00 0.00 0.00 0.00 0.00 0.00 0.00 0.00 0.00 0.00 0.00 0.00 0.00 0.00 0.00 0.00 0.00 0.00 0.00 0.00 0.01 0.01 0.01 0.01 0.01 0.01 0.01 0.01 0.01 0.01 0.01 0.00 0.00 0.00 0.00 0.00 0.00 0.00 0.00 0.00
0.00 0.00 0.00 0.00 0.00 0.00 0.00 0.00 0.00 0.00 0.00 0.00 0.00 0.00 0.00 0.00 0.00 0.00 0.00 0.00 0.00 0.00 0.01 0.01 0.01 0.01 0.01 0.01 0.01 0.01 0.01 0.01 0.00 0.00 0.00 0.00 0.00 0.00 0.00 0.00 0.00 0.00 0.00
0.00 0.00 0.00 0.00 0.00 0.00 0.00 0.00 0.00 0.00 0.00 0.00 0.00 0.00 0.00 0.00 0.00 0.00 0.00 0.00 0.00 0.00 0.00 0.01 0.01 0.01 0.01 0.01 0.01 0.00 0.00 0.00 0.00 0.00 0.00 0.00 0.00 0.00 0.00 0.00 0.00 0.00 0.00
MSLP
1018.96 1019.44 1020.04 1020.75 1021.51 1022.30 1023.06 1023.80 1024.48 1025.10 1025.65 1026.13 1026.53 1026.86 1027.12 1027.32 1027.47 1027.59 1027.71 1027.83 1027.96 1028.09 1028.21 1028.30 1028.33 1028.28 1028.13 1027.88 1027.55 1027.15 1026.71 1026.26 1025.81 1025.36 1024.93 1024.48 1024.01 1023.49 1022.91 1022.27 1021.57 1020.84 1020.10
1019.60 1020.11 1020.74 1021.46 1022.24 1023.03 1023.80 1024.53 1025.20 1025.80 1026.31 1026.75 1027.10 1027.37 1027.57 1027.72 1027.84 1027.94 1028.03 1028.14 1028.27 1028.39 1028.51 1028.60 1028.62 1028.57 1028.43 1028.19 1027.88 1027.50 1027.09 1026.65 1026.21 1025.76 1025.30 1024.81 1024.29 1023.71 1023.07 1022.37 1021.63 1020.87 1020.11
1020.33 1020.88 1021.53 1022.25 1023.00 1023.76 1024.49 1025.18 1025.79 1026.33 1026.79 1027.17 1027.46 1027.68 1027.84 1027.96 1028.05 1028.13 1028.22 1028.33 1028.44 1028.56 1028.67 1028.74 1028.75 1028.68 1028.53 1028.30 1027.99 1027.63 1027.24 1026.82 1026.39 1025.94 1025.47 1024.97 1024.42 1023.81 1023.14 1022.42 1021.68 1020.92 1020.18
1021.09 1021.67 1022.31 1023.00 1023.70 1024.40 1025.06 1025.66 1026.21 1026.68 1027.08 1027.40 1027.64 1027.82 1027.96 1028.05 1028.14 1028.22 1028.30 1028.40 1028.51 1028.62 1028.70 1028.74 1028.72 1028.63 1028.46 1028.21 1027.90 1027.55 1027.16 1026.76 1026.34 1025.91 1025.45 1024.95 1024.40 1023.80 1023.14 1022.44 1021.72 1021.00 1020.29
1021.78 1022.38 1023.01 1023.65 1024.28 1024.89 1025.46 1025.98 1026.45 1026.85 1027.19 1027.47 1027.69 1027.85 1027.98 1028.08 1028.16 1028.24 1028.33 1028.42 1028.51 1028.59 1028.63 1028.63 1028.57 1028.44 1028.23 1027.96 1027.64 1027.29 1026.91 1026.53 1026.13 1025.72 1025.28 1024.81 1024.29 1023.72 1023.11 1022.46 1021.79 1021.13 1020.47
1022.34 1022.96 1023.57 1024.15 1024.70 1025.22 1025.70 1026.15 1026.55 1026.90 1027.21 1027.47 1027.68 1027.85 1027.98 1028.09 1028.18 1028.26 1028.34 1028.42 1028.48 1028.51 1028.51 1028.46 1028.34 1028.16 1027.92 1027.62 1027.28 1026.93 1026.56 1026.19 1025.82 1025.45 1025.06 1024.63 1024.17 1023.66 1023.11 1022.53 1021.93 1021.33 1020.74
1022.76 1023.39 1023.97 1024.50 1024.98 1025.43 1025.84 1026.23 1026.58 1026.91 1027.21 1027.47 1027.69 1027.88 1028.02 1028.14 1028.23 1028.30 1028.36 1028.40 1028.42 1028.40 1028.34 1028.23 1028.06 1027.83 1027.55 1027.23 1026.89 1026.54 1026.18 1025.84 1025.51 1025.18 1024.85 1024.48 1024.08 1023.65 1023.17 1022.67 1022.15 1021.62 1021.10
1023.01 1023.66 1024.22 1024.71 1025.15 1025.55 1025.92 1026.27 1026.61 1026.94 1027.24 1027.52 1027.76 1027.96 1028.11 1028.22 1028.30 1028.35 1028.37 1028.36 1028.32 1028.24 1028.12 1027.95 1027.74 1027.47 1027.17 1026.84 1026.50 1026.16 1025.84 1025.54 1025.26 1024.98 1024.70 1024.41 1024.09 1023.73 1023.33 1022.90 1022.45 1021.98 1021.51
1023.13 1023.79 1024.35 1024.83 1025.24 1025.62 1025.98 1026.33 1026.67 1027.01 1027.33 1027.62 1027.87 1028.07 1028.21 1028.30 1028.34 1028.34 1028.30 1028.23 1028.13 1027.99 1027.81 1027.60 1027.35 1027.07 1026.76 1026.44 1026.12 1025.82 1025.54 1025.29 1025.06 1024.85 1024.64 1024.42 1024.17 1023.88 1023.56 1023.20 1022.81 1022.39 1021.97
1023.14 1023.83 1024.40 1024.88 1025.30 1025.68 1026.05 1026.41 1026.78 1027.13 1027.46 1027.76 1028.00 1028.17 1028.28 1028.32 1028.31 1028.24 1028.13 1027.98 1027.81 1027.62 1027.40 1027.15 1026.89 1026.61 1026.31 1026.02 1025.74 1025.49 1025.27 1025.07 1024.91 1024.77 1024.63 1024.47 1024.30 1024.08 1023.82 1023.52 1023.18 1022.81 1022.41
1023.08 1023.78 1024.38 1024.88 1025.32 1025.73 1026.12 1026.52 1026.90 1027.27 1027.60 1027.88 1028.09 1028.22 1028.27 1028.24 1028.15 1028.00 1027.81 1027.59 1027.36 1027.12 1026.87 1026.61 1026.35 1026.09 1025.83 1025.58 1025.35 1025.16 1024.99 1024.86 1024.76 1024.69 1024.61 1024.53 1024.42 1024.27 1024.07 1023.82 1023.53 1023.19 1022.83
1022.97 1023.69 1024.31 1024.84 1025.32 1025.77 1026.20 1026.62 1027.02 1027.39 1027.71 1027.96 1028.12 1028.19 1028.16 1028.05 1027.87 1027.64 1027.37 1027.09 1026.81 1026.53 1026.27 1026.01 1025.77 1025.53 1025.31 1025.11 1024.94 1024.80 1024.70 1024.63 1024.59 1024.57 1024.57 1024.55 1024.50 1024.41 1024.28 1024.08 1023.84 1023.54 1023.21
1022.84 1023.58 1024.21 1024.78 1025.30 1025.78 1026.25 1026.70 1027.11 1027.48 1027.77 1027.98 1028.08 1028.08 1027.98 1027.78 1027.52 1027.22 1026.89 1026.56 1026.24 1025.94 1025.67 1025.42 1025.20 1025.00 1024.82 1024.66 1024.53 1024.44 1024.39 1024.37 1024.38 1024.42 1024.47 1024.52 1024.54 1024.51 1024.44 1024.31 1024.11 1023.87 1023.57
1022.72 1023.45 1024.10 1024.70 1025.26 1025.78 1026.29 1026.75 1027.18 1027.53 1027.80 1027.96 1028.01 1027.94 1027.77 1027.51 1027.19 1026.83 1026.46 1026.10 1025.76 1025.45 1025.18 1024.94 1024.73 1024.55 1024.40 1024.27 1024.18 1024.12 1024.10 1024.12 1024.18 1024.26 1024.36 1024.46 1024.54 1024.59 1024.58 1024.52 1024.39 1024.20 1023.95
1022.62 1023.34 1024.00 1024.62 1025.21 1025.77 1026.30 1026.79 1027.21 1027.56 1027.81 1027.94 1027.94 1027.83 1027.61 1027.31 1026.96 1026.57 1026.18 1025.81 1025.46 1025.15 1024.88 1024.65 1024.45 1024.28 1024.13 1024.02 1023.93 1023.89 1023.89 1023.93 1024.02 1024.14 1024.28 1024.44 1024.58 1024.68 1024.75 1024.75 1024.69 1024.56 1024.37
1022.57 1023.26 1023.92 1024.55 1025.17 1025.75 1026.31 1026.81 1027.25 1027.59 1027.82 1027.94 1027.92 1027.79 1027.57 1027.26 1026.90 1026.51 1026.13 1025.76 1025.42 1025.12 1024.85 1024.62 1024.41 1024.23 1024.08 1023.95 1023.86 1023.81 1023.81 1023.86 1023.97 1024.11 1024.29 1024.49 1024.68 1024.84 1024.97 1025.03 1025.04 1024.98 1024.85
1022.56 1023.22 1023.88 1024.52 1025.15 1025.75 1026.32 1026.84 1027.28 1027.63 1027.86 1027.98 1027.97 1027.85 1027.63 1027.35 1027.01 1026.66 1026.29 1025.95 1025.63 1025.33 1025.07 1024.82 1024.60 1024.41 1024.23 1024.08 1023.97 1023.91 1023.90 1023.95 1024.06 1024.22 1024.42 1024.64 1024.87 1025.08 1025.26 1025.38 1025.43 1025.42 1025.34
1022.59 1023.23 1023.87 1024.51 1025.15 1025.76 1026.34 1026.86 1027.31 1027.66 1027.91 1028.04 1028.05 1027.96 1027.79 1027.54 1027.25 1026.94 1026.62 1026.31 1026.01 1025.73 1025.46 1025.21 1024.98 1024.75 1024.55 1024.38 1024.25 1024.16 1024.14 1024.18 1024.28 1024.45 1024.66 1024.90 1025.15 1025.38 1025.58 1025.74 1025.83 1025.86 1025.82
1022.64 1023.26 1023.89 1024.52 1025.15 1025.76 1026.34 1026.86 1027.31 1027.67 1027.92 1028.07 1028.12 1028.07 1027.94 1027.75 1027.52 1027.27 1027.00 1026.73 1026.46 1026.20 1025.94 1025.68 1025.43 1025.19 1024.97 1024.77 1024.62 1024.52 1024.48 1024.51 1024.60 1024.76 1024.97 1025.21 1025.46 1025.70 1025.91 1026.07 1026.18 1026.23 1026.22
1022.66 1023.26 1023.87 1024.49 1025.11 1025.71 1026.27 1026.78 1027.22 1027.58 1027.84 1028.01 1028.09 1028.08 1028.01 1027.88 1027.71 1027.52 1027.30 1027.08 1026.85 1026.61 1026.36 1026.10 1025.85 1025.60 1025.37 1025.16 1024.99 1024.88 1024.83 1024.85 1024.94 1025.08 1025.28 1025.50 1025.74 1025.96 1026.16 1026.32 1026.42 1026.47 1026.47
1022.61 1023.19 1023.79 1024.39 1024.98 1025.56 1026.10 1026.58 1027.00 1027.35 1027.61 1027.79 1027.89 1027.92 1027.90 1027.83 1027.72 1027.58 1027.43 1027.25 1027.06 1026.85 1026.62 1026.38 1026.14 1025.89 1025.66 1025.45 1025.28 1025.17 1025.12 1025.13 1025.20 1025.33 1025.51 1025.71 1025.91 1026.11 1026.29 1026.42 1026.51 1026.56 1026.55
1022.43 1023.00 1023.58 1024.16 1024.73 1025.27 1025.77 1026.22 1026.62 1026.94 1027.19 1027.38 1027.49 1027.56 1027.57 1027.55 1027.49 1027.41 1027.31 1027.18 1027.03 1026.86 1026.67 1026.45 1026.22 1025.99 1025.77 1025.57 1025.42 1025.30 1025.25 1025.26 1025.32 1025.43 1025.58 1025.76 1025.94 1026.10 1026.25 1026.36 1026.44 1026.48 1026.47
1022.09 1022.65 1023.21 1023.77 1024.30 1024.81 1025.28 1025.70 1026.06 1026.35 1026.59 1026.77 1026.89 1026.98 1027.02 1027.04 1027.03 1027.01 1026.95 1026.88 1026.77 1026.64 1026.47 1026.29 1026.09 1025.88 1025.68 1025.49 1025.34 1025.24 1025.18 1025.19 1025.24 1025.34 1025.47 1025.62 1025.78 1025.93 1026.05 1026.15 1026.22 1026.26 1026.26
1021.58 1022.13 1022.68 1023.21 1023.73 1024.20 1024.64 1025.02 1025.35 1025.62 1025.84 1026.01 1026.14 1026.24 1026.32 1026.37 1026.41 1026.42 1026.41 1026.38 1026.31 1026.22 1026.09 1025.93 1025.76 1025.57 1025.38 1025.21 1025.07 1024.96 1024.91 1024.90 1024.95 1025.04 1025.15 1025.30 1025.44 1025.59 1025.71 1025.82 1025.90 1025.96 1025.98
1020.92 1021.47 1022.01 1022.53 1023.02 1023.48 1023.89 1024.24 1024.55 1024.80 1025.01 1025.18 1025.32 1025.44 1025.53 1025.62 1025.68 1025.74 1025.77 1025.77 1025.74 1025.67 1025.57 1025.44 1025.27 1025.10 1024.92 1024.75 1024.60 1024.50 1024.43 1024.42 1024.46 1024.54 1024.65 1024.80 1024.95 1025.11 1025.26 1025.39 1025.51 1025.59 1025.66
1020.19 1020.73 1021.26 1021.77 1022.25 1022.69 1023.09 1023.43 1023.72 1023.97 1024.18 1024.35 1024.50 1024.63 1024.75 1024.86 1024.95 1025.03 1025.08 1025.11 1025.10 1025.05 1024.97 1024.84 1024.68 1024.50 1024.32 1024.14 1023.98 1023.86 1023.78 1023.76 1023.78 1023.86 1023.98 1024.14 1024.32 1024.51 1024.70 1024.88 1025.04 1025.18 1025.29
Thickness
5639 5636 5632 5626 5621 5615 5609 5602 5598 5592 5587 5582 5577 5571 5565 5559 5553 5548 5541 5535 5529 5523 5518 5513 5507 5502 5497 5491 5486 5480 5474 5470 5473 5485 5478 5472 5465 5460 5456 5450 5444 5440 5436
5625 5622 5617 5611 5606 5601 5594 5589 5584 5579 5574 5568 5563 5557 5551 5545 5539 5533 5526 5520 5515 5509 5503 5498 5493 5488 5482 5477 5471 5466 5460 5454 5451 5457 5460 5453 5447 5440 5436 5432 5426 5420 5414
5610 5606 5601 5596 5591 5586 5580 5575 5570 5565 5559 5553 5548 5543 5536 5530 5524 5517 5512 5506 5500 5494 5488 5483 5478 5473 5468 5462 5456 5450 5445 5439 5433 5431 5435 5431 5426 5419 5415 5412 5407 5400 5394
5594 5591 5585 5580 5576 5571 5566 5561 5555 5550 5544 5539 5533 5527 5521 5515 5509 5503 5497 5491 5485 5479 5474 5469 5463 5458 5453 5447 5441 5435 5429 5423 5416 5412 5411 5409 5404 5398 5390 5387 5388 5382 5375
5579 5575 5570 5565 5560 5556 5551 5545 5540 5534 5529 5523 5517 5511 5506 5500 5494 5489 5483 5477 5471 5465 5459 5454 5448 5443 5437 5431 5425 5419 5412 5406 5399 5394 5390 5387 5382 5375 5367 5360 5357 5357 5356
5564 5559 5554 5550 5545 5540 5535 5530 5524 5518 5513 5507 5502 5496 5490 5485 5480 5475 5469 5463 5457 5451 5445 5439 5434 5428 5422 5416 5409 5402 5394 5386 5380 5374 5369 5362 5357 5348 5342 5334 5328 5327 5330
5548 5543 5539 5535 5530 5525 5520 5514 5508 5503 5497 5491 5485 5480 5475 5470 5466 5461 5455 5449 5442 5436 5430 5424 5419 5412 5406 5400 5394 5386 5376 5366 5359 5351 5346 5338 5332 5325 5318 5314 5306 5298 5296
5533 5528 5524 5520 5515 5509 5503 5498 5492 5487 5481 5475 5470 5465 5459 5455 5450 5446 5440 5434 5427 5421 5415 5408 5402 5396 5389 5384 5379 5371 5362 5352 5343 5335 5326 5318 5309 5301 5293 5286 5280 5278 5278
5519 5514 5509 5505 5499 5493 5488 5482 5476 5471 5465 5460 5454 5449 5444 5439 5436 5431 5426 5419 5413 5406 5399 5393 5386 5379 5373 5367 5362 5355 5349 5339 5329 5318 5309 5300 5291 5282 5273 5266 5261 5256 5257
5506 5500 5494 5489 5484 5478 5473 5466 5460 5456 5450 5445 5439 5434 5429 5424 5420 5416 5411 5405 5398 5392 5384 5377 5369 5362 5355 5348 5341 5334 5329 5323 5314 5305 5295 5284 5274 5265 5256 5246 5239 5234 5232
5489 5482 5477 5472 5467 5462 5456 5451 5445 5440 5434 5429 5423 5418 5414 5409 5404 5399 5394 5388 5382 5375 5368 5360 5352 5345 5338 5330 5322 5315 5308 5301 5294 5285 5277 5268 5259 5249 5240 5232 5224 5218 5214
5472 5466 5460 5455 5451 5445 5440 5434 5429 5424 5418 5412 5407 5401 5396 5392 5387 5382 5377 5371 5365 5358 5351 5344 5336 5329 5321 5313 5305 5297 5289 5281 5272 5264 5256 5249 5241 5233 5225 5219 5213 5207 5202
5455 5448 5443 5438 5433 5429 5424 5419 5413 5407 5403 5397 5391 5385 5379 5375 5370 5365 5359 5353 5347 5340 5333 5326 5319 5312 5305 5296 5287 5278 5269 5260 5251 5243 5235 5228 5221 5215 5210 5206 5202 5198 5194
5439 5433 5427 5422 5417 5412 5408 5404 5398 5392 5387 5382 5375 5369 5363 5357 5352 5348 5342 5336 5330 5323 5316 5309 5301 5294 5286 5278 5268 5259 5249 5240 5230 5222 5215 5209 5203 5198 5194 5191 5188 5186 5184
5424 5418 5412 5407 5402 5397 5392 5387 5383 5378 5373 5366 5360 5354 5347 5341 5336 5332 5326 5320 5313 5306 5300 5292 5283 5275 5266 5258 5249 5240 5231 5221 5212 5204 5197 5191 5187 5183 5180 5177 5174 5172 5169
5410 5403 5397 5392 5386 5381 5375 5369 5366 5362 5357 5352 5346 5339 5332 5327 5322 5315 5309 5303 5296 5289 5280 5271 5263 5255 5246 5238 5230 5222 5213 5204 5195 5187 5180 5174 5170 5167 5165 5163 5160 5158 5155
5397 5390 5383 5377 5371 5365 5359 5354 5346 5341 5337 5332 5327 5322 5316 5310 5304 5298 5291 5284 5277 5269 5258 5250 5242 5234 5226 5218 5210 5202 5194 5186 5178 5171 5164 5159 5155 5152 5150 5149 5147 5144 5142
5380 5374 5368 5362 5355 5349 5342 5336 5329 5323 5316 5309 5306 5302 5298 5292 5286 5279 5272 5264 5254 5246 5238 5230 5222 5214 5207 5200 5192 5184 5177 5169 5162 5155 5150 5145 5141 5138 5136 5134 5132 5130 5128
5362 5356 5350 5343 5337 5331 5324 5317 5310 5304 5297 5291 5285 5281 5277 5272 5266 5260 5252 5242 5234 5227 5219 5212 5204 5197 5190 5183 5175 5168 5160 5153 5147 5141 5136 5132 5129 5126 5123 5121 5119 5117 5115
5343 5338 5332 5325 5318 5312 5305 5299 5293 5286 5280 5274 5268 5263 5258 5251 5244 5238 5231 5224 5217 5210 5203 5196 5188 5181 5174 5167 5160 5153 5146 5139 5133 5128 5124 5120 5117 5114 5111 5109 5107 5104 5102
5323 5318 5312 5306 5300 5294 5289 5283 5277 5270 5264 5258 5252 5247 5244 5236 5229 5221 5214 5208 5202 5195 5189 5181 5174 5167 5160 5153 5146 5139 5133 5127 5121 5117 5113 5109 5106 5103 5101 5098 5095 5093 5090
5304 5299 5293 5288 5282 5276 5271 5265 5259 5254 5248 5242 5236 5230 5229 5221 5214 5207 5200 5195 5188 5182 5176 5169 5161 5154 5148 5141 5134 5128 5121 5116 5111 5107 5103 5099 5096 5093 5090 5087 5084 5082 5079
5285 5280 5274 5269 5264 5259 5253 5247 5242 5237 5231 5225 5220 5214 5209 5204 5198 5192 5187 5181 5175 5168 5162 5156 5149 5142 5136 5130 5124 5117 5112 5107 5102 5098 5094 5090 5087 5084 5080 5077 5074 5071 5068
5266 5262 5257 5251 5245 5241 5236 5231 5226 5221 5215 5210 5204 5199 5194 5189 5184 5179 5173 5168 5162 5156 5150 5144 5138 5132 5126 5120 5114 5109 5104 5099 5095 5091 5087 5083 5079 5076 5072 5068 5065 5062 5058
5247 5243 5238 5234 5229 5224 5219 5214 5209 5205 5200 5195 5190 5185 5180 5175 5170 5166 5161 5156 5150 5144 5138 5133 5128 5122 5117 5111 5106 5100 5096 5092 5088 5084 5080 5076 5072 5068 5064 5060 5057 5053 5049
5228 5225 5221 5216 5211 5207 5203 5199 5194 5190 5185 5181 5176 5172 5168 5163 5158 5153 5148 5143 5138 5132 5127 5122 5117 5113 5108 5103 5098 5093 5089 5085 5082 5079 5075 5071 5066 5062 5058 5053 5049 5045 5041